View from above orbital plane
|
View from above satellite
|
Ground track
|
The orbit data is extracted from the following two-line orbital elements,
1 15494U 85009A 21104.56221726 .00001130 00000-0 44249-4 0 9996
2 15494 82.4758 289.1112 0002357 156.1000 204.0348 15.24779001981547
Epoch (UTC): | 14 April 2021 13:29:35 |
Eccentricity: | 0.0002357 |
inclination: | 82.4758° |
perigee height: | 490 km |
apogee height: | 493 km |
right ascension of ascending node: | 289.1112° |
argument of perigee: | 156.1000° |
revolutions per day: | 15.24779001 |
mean anomaly at epoch: | 204.0348° |
orbit number at epoch: | 98154 |
The dashed part of the orbit path shows where the satellite is in the earth's shadow,
|
|